Location: Mauna Kea VIS
(19.7591°N, 155.4561°W)
Time: 10:02:54
(UTC-10:00)

Daily predictions for brighter satellites

Satellite Brightness Start Highest point End
(mag) Time Altitude Azimuth Time Altitude Azimuth Time Altitude Azimuth
Ariane H10 4.2 19:07:04 10° SW 19:10:59 32° SSE 19:23:35 10° ESE
Delta R/B 4.3 19:09:24 10° W 19:12:11 62° N 19:22:08 10° ENE
Lacrosse 5 3.1 19:20:20 10° SW 19:25:13 48° NW 19:30:05 10° NNE
ASC 2 Rocket 4.4 19:17:01 10° WSW 19:25:47 56° SSE 19:31:32 10° E
Cosmos 1470 4.5 19:24:38 10° NE 19:27:10 16° E 19:29:41 10° ESE
Cosmos 1626 Rocket 3.6 19:23:15 10° S 19:27:39 62° E 19:32:02 10° NNE
EPKM 3.1 19:18:21 10° WNW 19:29:35 79° NNE 19:32:39 10° E
SL-16 R/B 3.7 19:28:46 10° NW 19:33:56 37° WSW 19:39:06 10° S
Cosmos 1733 4.0 19:33:03 10° NNE 19:36:28 32° E 19:39:52 10° SSE
Aureole 1 Rocket 2.4 19:37:12 10° S 19:40:01 44° ESE 19:43:04 10° NNE
Cosmos 1378 3.2 19:37:31 10° S 19:41:13 80° W 19:44:55 10° N
ASTRO E2 4.1 19:38:41 10° W 19:42:09 29° SSW 19:45:37 10° SSE
IUS-9 SRM-1 3.6 19:39:09 10° WNW 19:42:36 74° SSW 19:56:04 13° ESE
Cosmos 1602 Rocket 3.6 19:38:41 10° S 19:43:08 87° E 19:47:36 10° N
Cosmos 1655 Rocket 4.2 19:38:54 10° N 19:44:54 50° E 19:50:53 10° SSE
Cosmos 2263 Rocket 4.2 19:40:38 10° SW 19:45:40 32° WNW 19:50:42 10° N
SL-23 DEB 4.4 19:51:58 10° NW 19:55:53 90° WSW 20:01:37 14° SE
SEDSat Delta rocket 3.7 19:50:21 10° WSW 19:56:20 76° NNW 20:01:31 10° ENE
FREGAT/IRIS 4.1 19:54:32 10° SSW 19:57:15 35° W 19:59:59 10° NNW
Cosmos 1812 Rocket 4.3 19:53:48 10° NNE 19:57:43 32° E 20:00:22 17° SE
Cosmos 1707 2.9 19:54:54 10° S 19:58:44 76° W 20:02:35 10° N
Cosmos 1758 Rocket 4.3 19:56:45 12° SSE 20:00:18 32° E 20:04:15 10° NNE
USA 186 2.1 20:00:05 19° SE 20:02:10 44° ENE 20:05:12 10° N
Meteor 2-5 Rocket 4.0 19:56:28 10° S 20:02:13 53° E 20:07:57 10° NNE
ATLAS 2AS CENTAUR R/B 3.0 19:56:55 10° SSW 20:04:19 88° WNW 20:12:20 10° NNE
Thor Agena Rocket 3.5 19:59:31 10° NNE 20:04:35 89° WNW 20:09:36 10° SSW
Aurora 2 Rocket 3.7 20:01:04 10° W 20:06:02 62° N 20:13:19 10° ENE
Palapa 6 Rocket 3.7 20:01:45 10° W 20:06:21 62° N 20:11:35 12° E
Cosmos 1939 Rocket 3.1 20:03:45 17° SSE 20:06:40 51° ENE 20:10:36 10° N
H-2A R/B (2) 3.3 20:05:05 10° S 20:12:44 10° E 20:12:55 10° E
Envisat 3.4 20:04:15 10° S 20:09:15 64° WSW 20:14:17 10° NNW
Cosmos 1603 4.0 20:04:19 10° NNW 20:09:59 67° WSW 20:15:39 10° S
ERS-2 3.6 20:10:00 19° E 20:10:25 20° ENE 20:13:08 10° NNE
Resurs 01 Rocket 2.1 20:13:56 26° SE 20:15:54 41° ENE 20:20:02 10° N
SJ-11-01 4.5 20:20:06 27° SE 20:22:26 52° ENE 20:27:01 10° N
Cosmos 1825 Rocket 3.5 20:20:01 10° S 20:24:27 85° E 20:28:55 10° N
Cosmos 1315 Rocket 2.7 20:21:42 13° S 20:25:10 84° E 20:29:14 10° N
Cosmos 1461 4.1 20:28:17 27° E 20:28:17 27° E 20:31:12 10° NE
Hubble Space Telescope 0.9 20:23:32 10° WNW 20:27:36 61° SSW 20:28:45 42° SE
PSLV R/B 3.7 20:24:36 10° WSW 20:27:40 55° NW 20:30:09 14° NE
GPS 2-18 Rocket1 3.0 20:31:57 10° W 20:35:40 74° N 20:36:20 55° ENE
Cosmos 1953 3.8 20:34:12 10° NNW 20:37:50 35° W 20:41:14 11° SSW
Cosmos 2278 Rocket 3.2 20:42:19 28° E 20:42:19 28° E 20:46:00 10° NE
ARGOS 4.2 20:40:49 27° E 20:41:09 28° ENE 20:45:40 10° NNE
NOSS 3-4 (A) 3.5 20:36:34 10° S 20:42:28 48° ESE 20:48:22 10° NE
NOSS 3-4 (C) 3.5 20:36:42 10° S 20:42:34 48° ESE 20:48:26 10° NE
YAOGAN 6 4.3 20:41:27 15° SSW 20:43:41 28° W 20:46:45 10° NW
Spot 2 Rocket 3.4 20:42:55 45° SE 20:44:20 65° ENE 20:49:20 10° N
Ariane H10 4.1 20:29:51 10° WSW 20:45:44 30° SSW 20:47:33 26° S
BREEZE-M R/B 4.1 20:47:00 10° NNW 20:48:11 20° N 20:48:11 20° N
Cosmos 1943 3.9 20:43:58 10° NNW 20:49:23 50° WSW 20:52:37 23° S
Cosmos 1844 Rocket 3.9 20:51:56 10° SW 20:57:13 41° WNW 21:02:31 10° N
Cosmos 1420 Rocket 3.9 20:53:22 10° NNW 20:58:33 80° WSW 20:59:43 54° S
Cosmos 1452 Rocket 3.7 20:54:09 10° NNW 20:59:23 66° WSW 21:00:59 43° SSW
Cosmos 1238 Rocket 3.9 21:00:35 31° NW 21:00:35 31° NW 21:02:32 10° NNW
NOAA 11 4.3 20:58:36 38° S 21:00:41 69° WSW 21:06:04 10° NNW
Centaur D-1A AC-35 2.7 20:58:57 10° W 21:03:52 48° NNW 21:04:28 42° NNE
Cosmos 1346 Rocket 4.4 21:03:35 10° N 21:05:41 27° NNE 21:05:41 27° NNE
Cosmos-2242 4.0 21:09:06 10° N 21:11:58 38° NNE 21:11:58 38° NNE
ATLAS 5 CENTAUR R/B 4.1 21:18:38 11° NNE 21:18:38 11° NNE 21:18:52 10° NNE
H-2A R/B 2.5 21:20:38 50° NE 21:20:38 50° NE 21:24:58 10° N
ASC 2 Rocket 3.7 21:21:56 10° W 21:28:10 69° NNW 21:28:10 69° NNW
S3M 3.8 21:29:32 85° ESE 21:29:37 85° E 21:36:00 10° N
ATLAS 3B R/B 4.0 21:30:15 10° N 21:34:38 23° NE 21:34:38 23° NE
ERS-1 Rocket 4.2 21:46:44 36° N 21:46:44 36° N 21:49:43 10° N
Terra 4.5 21:59:09 11° NNE 21:59:09 11° NNE 21:59:28 10° NNE
Aurora 2 Rocket 4.2 21:54:08 10° WNW 22:00:36 60° N 22:01:34 56° NE
USA 215 3.9 22:20:53 49° WNW 22:20:53 49° WNW 22:25:42 10° NW
ATLAS 3B CENTAUR R/B 3.9 22:05:12 10° W 22:24:48 65° NNW 22:27:48 45° NE
Cosmos 2278 Rocket 4.2 22:24:01 21° W 22:25:02 22° WNW 22:29:18 10° NNW
